Home   Weather   Brilon   Past weeks
Flag for Germany

Past Weather in Brilon, North Rhine-Westphalia, Germany — Yesterday and Last 2 Weeks

Now
66 °F

Clear.


Feels Like: 66 °F
Forecast: 67 / 56 °F
Wind: 15 mph from Southwest

Location: Paderborn / Lippstadt

Current Time: Oct 14, 2019 at 12:58:57 am

Latest Report: Oct 14, 2019 at 12:20 am


Visibility: 10 mi

Pressure: 29.86 "Hg

Humidity: 68%

Dew Point: 55 °F

Location of BrilonLocation

Past Weather in Brilon — Graph

°F

Brilon Temperature Yesterday

Maximum temperature yesterday: 75 °F (at 3:20 pm)
Minimum temperature yesterday: 61 °F (at 3:20 am)
Average temperature yesterday: 68 °F

High & Low Weather Summary for the Past Weeks

 TemperatureHumidityPressure
High75 °F (Oct 13, 3:20 pm)100% (Oct 2, 4:20 am)30.12 "Hg (Oct 2, 4:20 am)
Low39 °F (Oct 7, 4:50 am)53% (Oct 13, 2:50 pm)29.39 "Hg (Sep 29, 9:20 pm)
Average54 °F80%29.82 "Hg
* Reported Sep 28 11:20 pm — Oct 13 11:20 pm, Brilon. Weather by CustomWeather, © 2019

Note: Actual official high and low records may vary slightly from our data, if they occured in-between our weather recording intervals... More about our weather records

Advertising

Brilon Weather History for the Previous 24 Hours

Scroll right to see more
 ConditionsComfort  
Time TempWeatherWind HumidityBarometerVisibility
11:20 pm
Sun, Oct 13
72 °FClear.15 mph57%29.86 "Hg10 mi
10:50 pm70 °FClear.14 mph60%29.83 "Hg10 mi
9:50 pm70 °FClear.14 mph60%29.83 "Hg10 mi
9:20 pm70 °FClear.14 mph60%29.83 "Hg10 mi
8:50 pm70 °FClear.15 mph64%29.83 "Hg10 mi
8:20 pm70 °FClear.13 mph64%29.83 "Hg10 mi
7:50 pm70 °FClear.14 mph64%29.80 "Hg10 mi
7:20 pm70 °FClear.15 mph64%29.80 "Hg10 mi
6:50 pm72 °FClear.17 mph57%29.80 "Hg10 mi
6:20 pm72 °FSunny.18 mph57%29.77 "Hg10 mi
5:50 pm72 °FSunny.18 mph61%29.77 "Hg10 mi
5:20 pm73 °FPassing clouds.14 mph57%29.77 "HgN/A
4:50 pm73 °FPassing clouds.13 mph57%29.77 "HgN/A
4:20 pm75 °FPassing clouds.10 mph54%29.80 "HgN/A
3:50 pm75 °FSunny.10 mph54%29.80 "Hg10 mi
3:20 pm75 °FSunny.10 mph57%29.80 "Hg10 mi
2:50 pm73 °FPassing clouds.9 mph53%29.80 "HgN/A
2:20 pm72 °FPassing clouds.10 mph65%29.80 "HgN/A
1:50 pm72 °FPassing clouds.7 mph65%29.83 "HgN/A
1:20 pm68 °FPassing clouds.9 mph78%29.83 "HgN/A
12:50 pm68 °FPassing clouds.12 mph78%29.83 "HgN/A
12:20 pm68 °FPassing clouds.13 mph73%29.86 "HgN/A
11:50 am68 °FSunny.16 mph73%29.86 "Hg10 mi
11:20 am66 °FScattered showers. Passing clouds.18 mph78%29.86 "HgN/A
10:50 am68 °FSunny.15 mph73%29.86 "Hg10 mi
10:20 am68 °FMild.14 mph73%29.83 "HgN/A
9:50 am66 °FSunny.14 mph73%29.83 "Hg10 mi
9:20 am66 °FLight rain. Passing clouds.15 mph78%29.83 "HgN/A
8:50 am64 °FPassing clouds.13 mph78%29.86 "HgN/A
8:20 am64 °FSunny.12 mph78%29.83 "Hg10 mi
7:50 am63 °FScattered clouds.12 mph83%29.83 "HgN/A
7:20 am63 °FPassing clouds.7 mph83%29.83 "HgN/A
6:50 am63 °FPassing clouds.6 mph83%29.83 "HgN/A
6:20 am63 °FPassing clouds.10 mph83%29.83 "HgN/A
5:50 am63 °FClear.9 mph77%29.83 "Hg10 mi
5:20 am63 °FPassing clouds.7 mph77%29.83 "HgN/A
4:20 am63 °FClear.8 mph77%29.83 "Hg10 mi
3:50 am61 °FClear.7 mph83%29.86 "Hg10 mi
3:20 am61 °FPassing clouds.8 mph83%29.86 "HgN/A
2:50 am63 °FPassing clouds.9 mph77%29.86 "HgN/A
2:20 am63 °FOvercast.9 mph77%29.86 "HgN/A
1:50 am63 °FOvercast.10 mph77%29.86 "HgN/A
1:20 am64 °FMostly cloudy.12 mph73%29.86 "HgN/A
12:50 am64 °FOvercast.12 mph68%29.86 "HgN/A
12:20 am64 °FOvercast.13 mph68%29.86 "HgN/A
Weather by CustomWeather, © 2019

See weather overview